This is the latest recevied weather packets stored in our database for station/object KF4WSW-13. If no packets are shown the sender has not sent any weather packets the latest 10 day(s).
| Time | Temp. | Humidity | Pressure | Rain* | Wind** | Luminosity | Snow |
|---|---|---|---|---|---|---|---|
| 1777816448 | 20.56° C | 73% | 1016.1 hPa | 0 mm | - | 292 W/m² | - |
| 1777816145 | 20.56° C | 73% | 1016.2 hPa | 0 mm | - | 207 W/m² | - |
| 1777815843 | 20° C | 75% | 1016.2 hPa | 0 mm | - | 234 W/m² | - |
| 1777815540 | 20.56° C | 75% | 1016.2 hPa | 0 mm | - | 383 W/m² | - |
| 1777815238 | 20° C | 76% | 1015.9 hPa | 0 mm | - | 336 W/m² | - |
| 1777814933 | 20° C | 76% | 1016.1 hPa | 0 mm | - | 234 W/m² | - |
| 1777814630 | 20° C | 77% | 1016 hPa | 0 mm | - | 265 W/m² | - |
| 1777814327 | 20° C | 78% | 1015.9 hPa | 0 mm | - | 308 W/m² | - |
| 1777814024 | 20° C | 79% | 1016 hPa | 0 mm | - | 134 W/m² | - |
| 1777813721 | 20° C | 79% | 1015.9 hPa | 0 mm | - | 374 W/m² | - |
| 1777813419 | 19.44° C | 80% | 1015.7 hPa | 0 mm | - | 397 W/m² | - |
| 1777813116 | 19.44° C | 81% | 1015.8 hPa | 0 mm | - | 344 W/m² | - |
| 1777812814 | 18.89° C | 82% | 1015.9 hPa | 0 mm | - | 122 W/m² | - |
| 1777812510 | 18.89° C | 82% | 1015.7 hPa | 0 mm | - | 145 W/m² | - |
| 1777812208 | 18.33° C | 83% | 1015.7 hPa | 0 mm | - | 281 W/m² | - |
| 1777811906 | 18.33° C | 84% | 1015.6 hPa | 0 mm | - | 154 W/m² | - |
| 1777811605 | 18.33° C | 85% | 1015.8 hPa | 0 mm | - | 124 W/m² | - |
| 1777811299 | 18.33° C | 86% | 1015.8 hPa | 0 mm | - | 142 W/m² | - |
| 1777810997 | 17.78° C | 86% | 1015.5 hPa | 0 mm | - | 130 W/m² | - |
| 1777810694 | 18.33° C | 87% | 1015.6 hPa | 0 mm | - | 94 W/m² | - |
| 1777810391 | 17.78° C | 88% | 1015.7 hPa | 0 mm | - | 89 W/m² | - |
| 1777810086 | 17.78° C | 89% | 1015.4 hPa | 0 mm | - | 96 W/m² | - |
| 1777809784 | 17.78° C | 89% | 1015.1 hPa | 0 mm | - | 57 W/m² | - |
| 1777809482 | 17.22° C | 90% | 1015 hPa | 0 mm | - | 53 W/m² | - |
| 1777809179 | 17.22° C | 90% | 1015.2 hPa | 0 mm | - | 51 W/m² | - |
* Rain latest hour (hover to see other rain measurements)
** Current wind speed in m/s (hover to see current wind gust speed)